Skip Page Navigation
NASA JPL Caltech
NASA Logo - Jet Propulsion Laboratory + View the NASA Portal
+ Center for Near-Earth Object Studies
JPL Home Earth Solar System Stars & Galaxies Technology
JPL Solar System Dynamics
BODIES ORBITS EPHEMERIDES TOOLS PHYSICAL DATA DISCOVERY FAQ SITE MAP
IMPORTANT: The SSD Announcement email list is now available. Major changes are coming in the near future, including possible hostname and/or URL changes. To be notified of such changes, subscribe to this email list.

Please visit this page for more details.


JPL Small-Body Database Browser
Search: [ help ]  
441362 (2008 DC79)
Classification: Main-belt Asteroid          SPK-ID: 2441362
Ephemeris | Orbit Diagram | Orbital Elements | Mission Design | Physical Parameters | Discovery Circumstances | Close-Approach Data ]

[ show orbit diagram ]
Orbital Elements at Epoch 2459000.5 (2020-May-31.0) TDB
Reference: JPL 12 (heliocentric ecliptic J2000)
 Element Value Uncertainty (1-sigma)   Units 
e .02615865732678161 7.0513e-08  
a 3.010985259730509 5.1613e-08 au
q 2.932221928105228 2.2288e-07 au
i 6.999144402132031 1.0291e-05 deg
node 336.079174162607 5.6346e-05 deg
peri 288.0001720485362 0.00020616 deg
M 37.67920266711247 0.00019672 deg
tp 2458800.762056384168
(2019-Nov-13.26205638)
0.0010434 TDB
period 1908.364684278761
5.22
4.9069e-05
1.343e-07
d
yr
n .1886431890957241 4.8505e-09 deg/d
Q 3.08974859135579 5.2963e-08 au
  Orbit Determination Parameters
   # obs. used (total)      101  
   data-arc span      6346 days (17.37 yr)  
   first obs. used      2002-01-09  
   last obs. used      2019-05-26  
   planetary ephem.      DE431  
   SB-pert. ephem.      SB431-N16  
   condition code      0  
   norm. resid. RMS      .64183  
   source      ORB  
   producer      Otto Matic  
   solution date      2019-Sep-24 07:42:03  

Additional Information
 Earth MOID = 1.92602 au 
 Jupiter MOID = 1.95577 au 
 T_jup = 3.238 
[ show covariance matrix ]

Ephemeris | Orbit Diagram | Orbital Elements | Mission Design | Physical Parameters | Discovery Circumstances | Close-Approach Data ]

Physical Parameter Table
Parameter Symbol Value Units Sigma Reference Notes
absolute magnitude H 16.5   n/a MPO434637  

441362 (2008 DC79)          Discovered 2008-Feb-10 by Mt. Lemmon Survey at Mount Lemmon
Reference: Last Updated: 2015-09-02

[ show close-approach data ]
Alternate Designations
 2008 DC79 = 2013 CD172 
Ephemeris | Orbit Diagram | Orbital Elements | Mission Design | Physical Parameters | Discovery Circumstances | Close-Approach Data ]
ABOUT SSD CREDITS/AWARDS PRIVACY/COPYRIGHT GLOSSARY LINKS
FirstGov 2020-May-29 20:01 UT
(server date/time)  
NASA Home Page
Site Manager:   Ryan S. Park
Webmaster  Alan B. Chamberlin